Flag for Turkey Weather past 2 weeks in Ankara, Turkey

Now
81 °F

Scattered clouds.


Feels Like: 81 °F
Forecast: 70 / 92 °F
Wind: 7 mph from Northeast

Location: Ankara / Esenboga

Current Time: Aug 20, 2014 at 1:58:30 PM

Latest Report: Aug 20, 2014 at 1:20 PM


Visibility: N/A

Pressure: 30.07 "Hg

Humidity: 42%

Dew point: 55 °F

Location of AnkaraLocation

Historic Weather in Ankara — Graph

°F

Ankara temperature yesterday

Maximum temperature yesterday: 82 °F (at 3:20 PM)
Minimum temperature yesterday: 64 °F (at 4:20 AM)
Average temperature yesterday: 71 °F

Past Weeks' High & Low Weather Summary

 TemperatureHumidityPressure
High97 °F (Aug 17, 3:20 PM)88% (Aug 6, 3:50 AM)30.09 "Hg (Aug 6, 3:50 AM)
Low55 °F (Aug 6, 4:50 AM)8% (Aug 16, 1:50 PM)29.65 "Hg (Aug 17, 11:20 PM)
Average75 °F46%29.93 "Hg
* Reported Aug 5 12:20 PM — Aug 20 12:20 PM, Ankara, Weather by CustomWeather, © 2014

Note: Actual official high and low records may vary slightly from our data, if they occured in-between our weather recording intervals... More about our weather records

Advertising

Ankara weather history for previous 24 hours

 ConditionsComfort  
Time TempWeatherWind HumidityBarometerVisibility
12:20 PM
Aug 20
79 °FScattered clouds.9 mph48%30.07 "HgN/A
11:50 AM79 °FScattered clouds.8 mph48%30.07 "HgN/A
11:20 AM77 °FScattered clouds.7 mph54%30.09 "HgN/A
10:50 AM77 °FScattered clouds.10 mph54%30.09 "HgN/A
10:20 AM75 °FScattered clouds.8 mph57%30.09 "HgN/A
9:50 AM73 °FScattered clouds.10 mph61%30.09 "HgN/A
9:20 AM73 °FScattered clouds.10 mph61%30.09 "HgN/A
8:50 AM72 °FPassing clouds.12 mph65%30.09 "HgN/A
8:20 AM70 °FPassing clouds.12 mph73%30.09 "HgN/A
7:50 AM68 °FSunny.13 mph73%30.09 "Hg10 mi
7:20 AM66 °FSunny.12 mph78%30.09 "Hg10 mi
6:50 AM64 °FClear.9 mph83%30.09 "Hg10 mi
6:20 AM63 °FClear.7 mph83%30.07 "Hg10 mi
5:50 AM61 °FClear.7 mph88%30.07 "Hg10 mi
5:20 AM61 °FClear.7 mph83%30.07 "Hg10 mi
4:50 AM61 °FClear.7 mph88%30.07 "Hg10 mi
4:20 AM61 °FClear.7 mph88%30.07 "Hg10 mi
3:50 AM63 °FClear.7 mph83%30.07 "Hg10 mi
3:20 AM63 °FClear.5 mph77%30.04 "Hg10 mi
2:50 AM63 °FClear.5 mph83%30.04 "Hg10 mi
2:20 AM64 °FClear.8 mph83%30.04 "Hg10 mi
1:50 AM66 °FClear.9 mph78%30.04 "Hg10 mi
1:20 AM66 °FClear.9 mph78%30.04 "Hg10 mi
12:50 AM68 °FClear.12 mph73%30.07 "Hg10 mi
12:20 AM68 °FClear.9 mph69%30.07 "Hg10 mi
11:50 PM
Aug 19
68 °FClear.8 mph69%30.07 "Hg10 mi
11:20 PM68 °FClear.10 mph69%30.07 "Hg10 mi
10:50 PM70 °FClear.10 mph64%30.07 "Hg10 mi
10:20 PM70 °FClear.12 mph64%30.07 "Hg10 mi
9:50 PM72 °FClear.13 mph57%30.07 "Hg10 mi
9:20 PM70 °FClear.10 mph60%30.04 "Hg10 mi
8:50 PM72 °FClear.13 mph57%30.04 "Hg10 mi
8:20 PM72 °FPassing clouds.12 mph57%30.01 "HgN/A
7:50 PM73 °FPassing clouds.13 mph53%30.01 "HgN/A
7:20 PM75 °FPassing clouds.13 mph50%29.98 "HgN/A
6:50 PM77 °FScattered clouds.14 mph47%29.98 "HgN/A
6:20 PM79 °FPartly sunny.12 mph45%29.98 "HgN/A
5:50 PM81 °FPartly sunny.12 mph39%29.95 "HgN/A
5:20 PM79 °FScattered clouds.15 mph45%29.95 "HgN/A
4:50 PM81 °FPartly sunny.12 mph39%29.95 "HgN/A
4:20 PM82 °FPartly sunny.12 mph37%29.95 "HgN/A
3:50 PM79 °FPartly sunny.12 mph45%29.95 "HgN/A
3:20 PM82 °FPartly sunny.12 mph40%29.95 "HgN/A
2:50 PM81 °FPartly sunny.10 mph42%29.95 "HgN/A
2:20 PM81 °FScattered clouds.9 mph42%29.95 "HgN/A
1:50 PM81 °FScattered clouds.8 mph39%29.98 "HgN/A
1:20 PM79 °FScattered clouds.7 mph51%29.98 "HgN/A
Weather by CustomWeather, © 2014

See weather overviewHow to use our weather pages